Tracking 29892 objects as of 21-Nov-2024
HD Live streaming from Space Station
objects crossing your sky now

STARLINK-32131

Track STARLINK-32131 now!
10-day predictions
STARLINK-32131 is classified as:


NORAD ID: 60153
Int'l Code: 2024-120U
Perigee: 454.0 km
Apogee: 454.8 km
Inclination: 53.2 °
Period: 93.5 minutes
Semi major axis: 6825 km
RCS: Unknown
Launch date: June 27, 2024
Source: United States (US)
Launch site: AIR FORCE EASTERN TEST RANGE (AFETR)
Your satellite tracking list
Your tracking list is empty




NASA's NSSDC Master Catalog

Two Line Element Set (TLE):
1 60153U 24120U   24326.12976484 -.00000528  00000-0 -32438-5 0  9994
2 60153  53.1575   1.5771 0000603   0.2335 359.8670 15.39610124 23922
Source of the keplerian elements: AFSPC